Wind_Speed
26 22 21 22 22 22 22 21 20 19 19 20 20 19 19 20 20 21 21 21 20 20 19 18 17 16 16 16 15 14 13 13 13 13 13 12 12 13 13 14 14 14 15 16 16 17 18 19 20 20 21 22 22 23 24 25 26 26 25 26 27 27 27 28 29 27 23 24 26 26 26 26 23 23 23 22 23 25 25 25 25 25 25 25 26
27 24 23 23 23 22 23 23 22 20 19 19 19 19 19 20 21 22 22 22 22 21 20 18 17 16 16 16 15 14 14 14 13 13 13 12 13 14 15 14 14 15 16 17 17 18 19 20 21 22 23 23 23 24 25 25 26 26 26 26 26 26 26 26 26 24 20 18 20 21 21 20 19 19 19 18 18 19 19 19 20 20 20 20 21
27 26 24 24 23 22 22 24 23 22 21 20 19 19 20 20 21 22 23 23 24 24 22 19 18 17 16 14 14 14 14 14 13 13 12 12 13 14 15 15 15 16 17 18 19 19 20 21 22 23 24 24 25 25 25 25 25 26 25 24 24 23 24 23 22 20 16 14 15 18 19 18 17 18 18 17 17 16 15 15 16 16 16 17 17
27 27 26 25 24 23 23 23 23 24 23 21 20 20 20 21 22 26 27 27 26 25 22 20 18 18 16 14 13 14 14 13 13 12 12 13 14 15 16 16 17 18 18 18 18 19 20 21 22 23 24 25 26 25 25 24 23 22 21 19 19 19 19 19 18 17 15 14 14 17 18 17 17 18 17 16 16 15 14 14 14 14 14 14 15
27 28 28 27 26 24 23 22 23 24 23 22 22 20 21 24 28 29 26 23 23 21 20 20 19 17 15 13 13 13 13 13 13 14 14 15 16 17 18 18 19 19 18 18 18 19 20 21 21 22 22 22 23 22 21 20 19 17 16 15 15 15 15 16 16 15 15 15 15 16 18 17 17 18 18 16 16 16 15 15 15 14 13 14 14
26 27 28 28 27 25 23 22 22 22 23 23 22 21 24 29 29 24 20 19 19 17 17 20 17 13 12 13 13 14 14 14 15 16 16 16 17 18 19 20 20 19 19 19 19 19 19 20 20 19 18 18 18 17 16 15 14 13 13 13 13 14 14 14 15 15 15 16 16 16 17 18 17 18 18 18 17 16 15 15 16 15 14 14 15
26 26 27 27 26 25 23 22 21 22 23 24 23 24 27 28 25 20 18 19 18 15 16 19 17 13 13 15 15 16 16 17 17 17 17 18 18 18 19 20 20 19 19 18 18 18 17 17 16 14 13 12 11 11 11 11 12 12 12 12 13 13 14 15 15 16 16 16 17 17 17 18 18 18 18 19 18 17 16 15 15 16 16 16 16
26 26 27 27 26 25 23 22 22 22 23 24 25 27 28 25 22 20 19 19 18 16 17 18 18 18 18 18 18 18 19 19 19 18 18 18 17 17 18 18 18 18 17 16 15 14 13 12 10 9 7 7 8 9 9 10 11 11 12 12 13 13 14 15 16 16 16 16 16 17 17 18 18 19 19 19 18 18 17 16 16 17 18 19 19
30 28 27 26 26 26 26 24 22 21 21 22 24 26 26 23 21 21 20 19 19 18 18 18 20 21 21 20 20 20 21 21 19 17 17 16 16 16 16 16 16 16 14 12 11 10 9 8 8 7 7 7 8 9 10 10 11 11 12 12 13 13 14 15 16 16 16 16 17 17 18 19 19 19 20 20 19 18 18 18 17 17 17 18 20
32 29 27 27 27 27 28 26 22 21 21 21 22 22 21 20 20 21 22 21 20 20 19 19 21 22 22 22 23 23 21 19 18 16 16 16 16 16 16 16 15 13 11 10 9 8 8 8 9 8 8 8 8 9 10 10 11 11 12 12 13 13 14 15 16 17 17 17 18 19 19 20 20 20 20 20 20 20 19 18 18 18 17 17 19
32 30 28 27 29 31 31 27 24 22 20 19 19 19 17 16 17 19 20 20 20 20 19 21 23 23 22 22 23 22 19 17 16 16 16 16 16 16 15 14 12 10 9 10 9 8 9 10 9 9 9 9 9 10 10 11 11 12 12 13 13 14 16 16 17 17 18 19 19 20 20 20 21 21 21 20 20 20 20 19 18 18 18 17 18
32 33 29 27 30 32 30 24 21 20 17 15 17 16 13 13 14 15 17 17 18 19 19 21 23 23 23 22 21 21 18 17 16 16 16 16 15 14 13 11 10 9 10 10 10 9 10 10 9 9 9 10 10 11 11 12 13 13 13 14 14 15 16 16 17 17 17 18 18 19 19 19 20 21 20 20 20 20 20 20 19 18 18 19 18
33 31 27 25 27 29 25 20 18 15 13 15 16 15 12 12 12 13 15 16 17 18 19 20 21 22 22 21 21 20 18 17 16 15 15 14 13 12 11 10 10 11 11 11 10 9 9 9 8 8 9 10 11 12 13 13 14 14 14 14 14 14 15 15 16 17 17 17 18 19 19 19 19 20 20 20 20 20 20 21 21 20 20 20 20
29 28 27 26 25 22 21 20 16 12 13 16 16 14 12 12 12 14 15 16 17 18 19 19 20 20 20 20 20 19 17 15 15 14 14 13 12 11 10 11 12 12 11 10 8 8 8 8 8 8 9 10 11 12 13 14 14 14 13 13 13 13 14 14 15 16 17 18 19 20 21 20 20 20 21 21 21 21 21 21 21 21 21 21 20
21 23 24 24 20 16 16 17 14 12 14 15 13 12 11 12 14 16 16 16 17 18 18 18 17 17 17 18 18 17 15 14 14 14 13 12 11 10 11 12 11 10 9 8 7 7 7 7 8 9 10 11 12 12 13 13 13 12 12 12 13 14 15 15 16 17 19 20 21 21 22 22 22 22 22 22 22 22 22 21 20 19 19 19 19
14 17 18 18 16 14 14 15 13 11 12 13 12 12 13 13 15 17 17 18 18 17 16 16 15 15 16 17 17 16 15 15 15 14 13 11 10 11 11 10 9 8 7 5 5 7 7 8 9 10 10 11 12 12 13 13 13 13 13 14 15 16 17 18 19 20 21 21 22 22 23 23 23 23 22 22 22 22 22 21 20 19 18 18 19
10 14 15 14 13 13 14 14 12 10 11 13 14 14 15 15 16 17 18 19 19 17 17 16 15 15 16 16 16 15 15 15 15 15 13 11 11 11 10 8 7 6 4 4 6 7 7 8 10 10 11 11 12 12 13 14 15 15 16 17 18 19 20 20 21 21 21 22 22 22 23 23 22 22 21 20 20 20 20 20 19 19 18 18 19
10 14 15 12 10 11 15 16 13 12 13 14 15 15 16 17 17 18 19 20 20 19 18 17 16 17 17 17 15 14 14 14 15 14 12 11 12 10 8 7 5 3 3 5 7 8 8 9 10 11 12 12 12 13 14 15 16 17 18 19 20 21 22 22 22 22 21 21 21 21 21 22 22 21 20 19 19 18 18 18 19 19 19 20 21
13 16 16 13 10 12 15 16 15 16 18 18 17 17 18 19 19 19 20 22 22 21 20 18 18 19 19 17 15 14 15 15 14 13 12 12 11 9 7 6 4 3 4 7 8 9 10 10 11 12 13 13 13 14 14 15 16 18 19 20 21 22 22 22 22 22 21 21 20 20 20 20 21 20 19 19 19 19 19 20 21 22 22 23 24
16 17 17 16 14 13 14 15 16 19 20 18 18 19 20 20 20 21 22 23 22 22 21 20 20 20 19 17 16 16 16 15 14 13 13 12 9 7 5 4 4 4 6 8 9 10 11 12 13 14 14 14 14 14 15 16 17 19 20 21 21 21 21 21 21 21 21 20 20 20 20 20 20 20 20 20 21 21 22 23 24 25 26 26 27
15 15 16 16 16 14 14 16 17 18 17 16 16 20 21 22 22 23 24 25 23 21 20 19 18 18 17 16 17 17 16 15 14 13 11 9 7 6 5 5 5 6 8 9 10 11 12 13 14 15 15 15 14 14 15 17 18 19 20 20 21 20 20 20 20 20 20 21 21 21 21 21 21 21 21 21 22 22 23 24 25 26 27 28 29
11 12 14 15 15 14 15 16 16 17 18 17 17 19 21 22 23 24 25 23 20 18 18 18 17 16 16 17 17 17 15 14 13 12 10 8 7 6 6 6 7 8 9 10 11 13 14 14 15 16 15 15 15 15 16 17 18 19 19 20 19 19 19 20 20 20 21 21 21 21 21 21 21 22 22 22 22 23 23 24 25 26 27 28 29
7 9 11 13 13 12 14 17 17 19 21 19 17 19 22 21 21 22 22 18 15 16 17 16 17 17 17 17 16 15 14 13 12 11 9 7 7 6 6 8 9 9 10 11 13 14 15 15 16 16 16 16 16 16 16 17 18 18 19 20 19 19 20 20 20 20 20 20 21 20 20 21 21 22 22 22 22 23 23 24 25 25 26 27 29
4 5 7 10 10 8 9 11 13 16 18 17 17 19 19 17 17 19 19 16 13 14 15 15 17 18 17 15 14 13 13 13 11 10 8 7 7 7 7 8 10 11 12 13 14 15 15 16 16 16 17 18 17 16 16 16 17 18 18 19 19 19 20 20 20 20 20 20 20 20 20 21 21 21 22 22 22 23 23 24 24 24 24 25 27
2 2 3 6 8 8 6 4 4 8 13 16 18 17 14 15 18 18 18 16 14 14 16 17 17 17 16 15 13 13 13 12 10 9 8 7 7 8 8 9 10 11 13 14 15 15 15 16 17 17 18 19 18 17 16 16 17 17 17 18 18 18 19 19 19 19 20 20 20 20 20 21 21 21 22 22 22 22 22 23 23 23 24 24 25
3 1 2 3 5 6 6 3 1 5 12 16 17 16 15 17 18 16 15 16 17 18 18 18 17 17 17 15 14 13 13 11 10 9 8 8 8 8 8 10 11 12 14 15 15 15 16 17 18 18 19 20 19 17 16 16 17 17 17 18 18 18 19 19 19 20 20 20 20 20 20 20 21 22 22 22 22 22 22 23 23 24 24 24 25
5 5 4 3 4 4 4 5 5 8 12 13 14 16 17 18 17 16 15 16 19 21 20 19 18 17 16 14 14 13 12 10 9 9 8 8 8 8 9 10 12 13 14 15 15 15 16 18 19 20 19 19 19 18 17 17 18 18 18 19 20 20 20 20 20 20 20 20 20 20 20 21 21 22 22 22 22 23 23 23 24 24 24 24 24
5 5 4 5 6 5 5 8 10 11 12 12 13 15 16 16 16 16 16 16 18 19 19 19 18 16 15 14 13 12 11 11 10 9 8 7 7 8 10 11 13 14 15 15 15 16 17 19 20 20 20 19 19 19 18 18 18 19 19 20 21 21 21 21 20 20 20 20 20 20 20 20 21 22 22 23 23 23 24 24 24 24 24 24 25
4 4 4 6 8 7 7 11 13 13 12 13 15 16 16 16 17 17 17 18 18 18 17 18 17 17 16 15 13 12 12 11 10 8 8 7 8 9 11 12 13 14 15 15 16 16 18 19 19 19 19 18 18 19 19 19 19 19 19 19 19 20 20 21 20 20 20 20 19 20 20 20 22 23 23 24 24 24 24 25 25 26 26 26 26
4 4 5 8 10 10 11 14 16 15 14 16 17 17 16 17 17 17 18 19 20 20 18 17 17 16 15 14 13 12 11 10 8 7 7 8 9 10 12 12 13 14 14 15 16 17 17 18 18 17 17 17 18 19 19 19 19 19 19 19 19 19 19 19 19 19 19 19 20 20 21 22 23 24 24 25 25 26 26 27 27 28 29 29 28
4 3 4 7 10 12 13 15 17 17 17 18 19 17 17 17 18 18 19 20 20 20 19 18 17 16 15 13 12 11 10 8 8 7 7 8 10 11 12 13 13 13 14 15 16 16 16 16 16 17 17 17 18 18 19 19 18 18 18 18 18 17 16 16 16 17 19 20 21 23 23 24 25 25 26 26 27 28 28 29 29 29 30 31 31
6 4 4 6 10 13 14 16 18 20 20 20 19 17 16 16 17 19 19 19 18 17 18 17 17 15 14 13 12 10 9 8 7 7 8 10 11 12 12 13 13 14 15 16 16 15 15 15 15 15 16 17 17 17 17 17 17 17 16 16 15 16 16 16 18 19 20 21 22 23 24 25 26 26 27 27 28 29 29 29 30 30 30 31 31
9 7 4 5 9 13 15 17 18 19 20 19 19 18 16 14 15 18 19 19 18 17 16 16 15 14 13 12 10 8 8 8 8 8 10 10 11 12 12 13 14 15 15 15 14 14 14 14 14 15 15 15 16 16 16 16 15 15 15 14 15 17 18 19 20 21 21 22 22 23 24 25 26 27 27 28 28 29 29 30 30 30 31 31 32
11 10 9 7 8 11 14 16 16 18 21 21 20 20 19 16 15 15 15 15 16 17 16 14 14 12 11 10 9 8 8 8 9 9 10 11 11 12 13 14 15 14 14 14 14 14 14 14 14 14 14 14 14 14 14 13 14 14 15 16 17 19 20 21 22 22 22 23 24 24 25 26 27 27 28 29 29 30 30 31 31 32 33 33 33
11 12 13 13 12 12 13 16 16 17 20 22 22 22 22 20 17 15 13 12 13 14 14 12 11 10 9 9 9 8 8 8 9 10 11 11 12 13 14 15 15 14 13 14 14 14 14 14 13 13 13 12 12 11 12 13 14 16 17 18 19 20 21 22 22 23 24 24 25 26 26 27 28 29 29 30 30 31 32 32 33 33 34 34 35
12 12 13 16 16 14 14 16 17 17 19 21 22 22 22 21 20 19 17 15 15 14 13 11 10 9 9 9 8 7 8 8 9 10 11 12 13 14 15 15 14 13 13 13 13 13 13 12 11 10 9 9 10 11 12 14 15 17 18 19 20 21 22 23 24 25 26 26 26 27 27 28 29 30 30 31 32 32 33 33 34 34 34 35 35
13 12 12 14 17 17 16 17 18 19 21 22 23 23 23 23 22 20 18 17 15 14 12 11 10 10 9 8 7 7 8 9 10 11 13 13 14 15 14 14 12 12 12 12 12 11 10 9 8 7 7 8 10 11 13 15 16 18 19 20 21 22 23 24 25 26 27 27 28 28 28 29 29 30 31 31 32 32 33 33 33 34 34 35 35
15 13 11 12 15 17 18 19 21 22 23 24 25 25 25 24 23 20 18 17 15 14 13 12 11 9 8 7 8 9 10 11 12 13 14 15 15 14 13 12 11 11 11 11 10 9 7 6 6 6 8 9 10 12 14 15 16 18 19 20 21 22 23 24 25 26 27 27 28 29 29 30 30 30 31 31 31 32 32 33 33 34 35 35 35
16 15 14 14 16 17 19 21 23 25 25 25 25 26 26 25 24 22 19 17 16 15 13 12 11 9 8 9 11 12 12 13 14 15 15 14 13 12 11 11 10 9 9 9 7 6 5 6 6 7 8 10 11 13 14 15 17 18 19 20 21 22 23 23 24 25 26 27 28 29 29 29 30 30 30 30 31 32 33 33 34 34 35 35 35
15 15 16 18 19 19 20 22 24 25 25 25 26 27 26 25 24 22 19 18 17 16 15 12 10 9 11 12 13 13 14 14 15 15 14 12 11 11 10 9 8 7 7 6 4 4 5 6 7 8 9 11 13 14 15 17 18 19 20 21 21 22 23 24 25 26 27 27 28 28 28 28 29 29 30 31 32 33 33 34 34 34 35 35 35
17 17 18 20 20 20 22 24 26 26 25 25 26 28 28 26 24 22 20 19 19 18 17 14 13 13 13 13 12 13 14 14 13 12 12 11 11 11 9 7 6 5 5 5 4 4 4 6 7 9 11 12 13 14 16 17 18 19 20 21 22 23 24 25 26 26 27 27 28 28 29 29 30 31 31 32 33 34 34 35 35 35 36 36 36
18 18 20 21 21 21 22 23 24 25 25 26 27 27 27 26 24 22 20 18 17 16 15 15 15 13 12 11 11 12 12 11 10 9 10 11 11 10 7 5 5 5 4 4 4 5 5 7 9 10 11 12 13 14 15 17 18 19 20 22 23 24 25 25 26 26 27 28 29 29 30 30 31 32 32 33 34 34 35 35 35 36 36 36 36
16 17 20 21 21 22 22 22 22 24 26 27 27 26 25 23 22 21 18 16 14 13 14 15 14 12 11 11 11 11 10 8 8 8 9 9 10 9 7 5 5 4 3 3 4 5 6 7 8 9 10 12 13 14 16 17 19 21 22 23 25 25 26 27 27 28 28 29 29 30 30 31 32 33 33 34 34 34 34 35 35 35 35 35 35
15 18 19 19 20 21 22 22 22 24 25 26 26 26 25 23 21 19 17 14 14 14 15 15 13 11 11 11 10 9 8 7 8 8 8 9 9 8 6 5 4 3 2 3 5 6 6 7 9 10 11 12 14 15 17 19 21 23 24 26 27 28 28 29 29 30 30 30 31 31 31 32 32 33 33 33 34 34 34 34 34 34 34 34 34
16 19 17 15 17 19 20 21 24 25 26 26 27 27 26 24 21 18 16 15 15 15 14 13 12 11 10 9 8 8 7 8 8 8 8 9 8 7 6 5 4 3 3 4 5 6 7 8 10 11 12 14 15 17 19 21 23 25 27 28 29 30 31 31 31 32 32 32 33 33 33 33 33 33 33 33 33 33 33 33 33 33 33 32 32
16 18 16 16 18 20 19 21 26 28 27 27 27 27 26 24 20 18 16 15 14 13 12 12 11 9 8 7 7 8 8 8 8 8 8 8 8 7 5 4 3 3 4 5 6 6 7 9 11 12 14 16 18 20 22 24 26 27 29 30 31 32 33 33 33 34 34 34 34 34 34 34 34 33 33 33 33 33 33 32 32 32 32 31 31
12 14 15 16 20 22 22 24 29 30 28 27 26 25 22 20 19 17 16 14 12 12 12 11 8 6 5 7 8 8 8 8 8 8 8 7 7 6 4 3 4 4 5 5 6 6 8 10 12 14 16 19 21 23 25 27 28 30 31 32 33 34 34 34 35 35 34 34 35 35 34 34 34 33 33 33 32 32 32 32 32 32 31 31 30
12 13 15 17 20 24 25 26 28 28 26 24 22 20 17 17 16 15 13 12 12 12 10 8 5 5 6 8 9 8 8 8 8 8 8 6 5 4 4 5 4 5 5 6 7 9 10 12 15 17 20 22 24 26 27 28 30 31 32 33 34 35 35 35 35 34 34 34 34 34 34 34 33 33 32 31 31 31 31 31 31 31 31 30 29
10 11 16 21 24 24 24 23 24 23 22 20 17 15 14 13 13 13 12 11 10 8 6 5 6 7 8 9 9 9 9 9 9 8 6 4 4 5 5 5 5 5 7 8 10 12 14 16 18 20 22 24 25 27 28 29 31 32 33 34 34 35 35 35 34 34 34 33 33 33 33 33 32 31 30 30 30 30 31 31 30 30 29 28 27
12 13 19 27 28 25 24 23 22 21 20 17 14 14 14 13 13 12 10 8 5 5 6 8 9 9 9 9 9 10 9 9 7 6 5 5 5 6 6 6 7 8 10 11 13 15 16 18 20 22 23 25 26 27 29 30 31 32 33 34 34 35 35 35 34 34 34 34 33 33 32 31 30 29 28 29 30 30 30 30 29 28 28 27 26
14 13 16 20 20 18 17 18 18 17 16 14 13 13 14 13 11 9 7 6 6 6 8 9 10 9 9 9 9 9 8 7 6 5 5 5 5 6 7 9 10 11 12 13 15 16 18 20 21 23 24 25 26 28 29 30 31 32 33 34 35 35 34 34 34 33 33 33 33 33 32 30 28 28 28 29 30 30 30 29 28 27 26 26 25
Wind_Direction
247 247 243 244 245 247 247 245 244 243 240 238 237 234 233 233 232 232 232 232 233 232 228 227 228 227 228 232 233 233 233 231 234 239 242 244 249 253 255 256 257 260 263 265 266 270 272 273 272 271 270 269 270 271 273 274 275 278 279 281 282 282 283 284 287 291 292 290 290 289 288 290 293 293 293 293 291 288 287 287 287 286 284 282 281
244 244 241 242 246 248 246 243 241 239 239 239 238 237 236 234 233 233 234 236 236 234 232 231 231 231 233 236 235 234 234 233 237 243 245 245 247 253 258 262 265 265 265 266 266 267 269 270 270 270 271 271 271 272 274 275 277 280 280 280 280 281 284 286 289 292 293 289 287 288 289 294 298 298 301 304 300 294 291 291 291 289 287 286 285
242 241 237 239 244 246 245 241 239 238 237 237 237 238 237 236 236 235 234 234 233 231 227 225 230 235 237 240 238 236 240 245 248 249 248 247 248 252 259 262 264 265 266 269 271 272 273 273 274 273 274 275 276 277 278 279 282 283 282 279 278 280 284 287 290 292 294 292 289 289 290 295 298 299 304 309 307 301 296 294 294 292 291 291 291
242 240 235 235 239 241 243 242 239 238 237 235 236 238 238 238 237 234 231 228 229 233 229 220 222 231 238 241 239 240 245 248 248 247 250 255 257 257 259 260 262 265 268 270 272 275 277 279 279 277 275 276 277 279 279 281 283 283 281 277 276 279 283 286 290 294 296 295 292 291 293 296 297 298 302 306 307 306 303 299 298 297 296 295 295
241 240 234 232 235 237 242 244 239 237 236 233 235 238 239 239 235 233 233 231 233 242 240 227 222 226 233 238 239 240 243 244 245 249 254 261 265 264 263 264 267 271 273 275 277 279 281 283 284 280 276 274 274 275 276 278 280 280 279 278 279 281 283 285 289 294 295 295 292 292 295 297 299 298 299 301 301 301 302 301 299 297 296 295 293
234 236 231 229 233 236 241 245 239 236 234 231 232 235 238 241 241 242 246 246 243 244 239 232 230 230 232 238 242 245 249 251 253 256 260 265 267 267 267 269 273 277 281 283 284 285 286 287 286 281 274 270 269 270 271 274 277 278 278 279 281 284 285 287 290 292 294 293 292 292 294 296 298 298 298 299 299 296 296 298 297 295 293 291 290
229 229 230 228 231 235 239 242 238 235 234 232 231 235 239 244 248 250 251 251 249 242 233 232 234 239 242 243 246 252 255 257 258 259 262 265 269 272 275 278 281 283 284 286 287 288 288 287 285 280 273 268 268 268 270 273 277 280 282 283 285 287 290 291 291 292 293 293 294 295 294 294 296 296 297 299 301 299 296 294 293 293 293 291 290
228 225 229 229 231 235 236 237 236 235 235 235 235 238 242 246 248 246 245 248 249 242 234 233 234 238 243 245 248 253 255 257 259 260 262 265 271 276 279 280 280 280 281 284 287 288 286 283 283 282 276 271 269 270 274 278 280 283 284 285 288 290 292 293 292 293 295 296 297 297 296 296 297 297 298 299 301 301 299 297 294 292 292 292 292
226 219 224 227 230 234 236 234 233 232 232 233 235 240 244 245 246 245 244 243 242 237 230 230 233 236 239 242 245 248 250 254 260 263 264 267 272 275 276 275 274 276 278 282 284 283 282 282 281 280 275 272 271 274 279 283 285 287 287 288 291 293 294 295 295 297 299 299 298 297 297 297 297 297 299 300 301 301 300 300 298 296 296 296 295
232 219 218 223 226 231 233 230 227 226 227 230 234 239 241 241 241 243 243 239 235 231 227 229 235 239 239 239 241 244 247 252 259 262 264 268 273 274 273 271 271 274 276 275 276 278 279 279 277 276 275 273 274 278 284 289 291 291 291 293 296 298 298 298 299 301 301 300 299 298 298 299 299 299 300 300 302 302 301 300 299 298 299 298 296
243 230 219 219 221 226 228 223 218 219 223 228 234 237 239 239 237 238 240 237 231 228 228 229 234 239 240 238 241 246 250 254 257 260 264 270 273 273 271 270 268 268 267 266 271 275 274 273 274 277 280 281 284 287 290 293 294 294 296 298 300 300 300 301 301 301 301 301 300 300 301 302 301 301 300 300 301 301 301 300 300 299 298 296 293
249 238 227 222 223 228 230 226 223 226 226 227 232 237 242 242 237 236 238 236 231 229 228 227 230 235 236 236 238 245 250 254 255 260 265 270 270 266 265 263 259 255 257 262 267 269 269 271 276 281 284 286 290 293 295 296 296 297 299 300 302 302 302 303 303 301 300 300 300 302 303 302 300 298 298 298 298 298 298 298 298 299 298 296 292
253 243 236 233 233 234 237 239 241 243 236 230 232 235 241 240 233 230 231 230 229 228 226 225 228 231 231 231 235 242 247 251 253 258 263 263 259 256 256 252 248 249 253 257 260 262 265 270 277 282 285 290 294 295 297 298 298 300 303 304 304 302 302 304 303 301 300 300 301 304 305 304 301 300 300 301 301 301 300 300 301 301 299 296 294
261 253 242 243 244 242 243 248 250 246 239 238 236 232 236 236 226 220 219 218 219 220 220 222 225 228 229 229 234 239 243 248 251 254 253 250 248 249 248 244 243 245 247 248 250 258 267 275 283 287 290 293 294 294 296 298 300 304 308 307 305 304 305 306 305 303 302 302 303 306 307 307 305 303 303 303 303 302 301 301 302 302 300 297 295
256 251 242 245 251 249 243 242 242 243 247 250 243 230 228 225 218 217 215 212 212 214 216 219 223 227 228 230 234 238 241 246 248 245 240 239 242 243 239 237 237 237 239 241 249 261 271 280 287 290 293 294 295 296 299 301 304 308 310 309 309 311 312 311 309 306 305 304 304 305 305 303 301 299 299 299 298 297 296 295 295 295 295 294 294
238 238 237 241 243 239 232 228 228 235 245 249 238 224 221 218 215 218 218 215 216 217 218 221 224 226 228 231 232 233 237 241 239 234 233 235 235 232 230 230 230 232 238 246 258 267 275 284 291 295 298 299 300 301 304 306 309 312 312 312 312 312 311 309 307 305 303 302 302 300 299 297 295 295 294 294 293 292 292 291 290 289 289 290 291
236 236 239 243 245 241 234 227 219 213 223 234 232 224 222 219 217 221 221 221 222 220 220 222 222 222 223 223 224 226 231 231 227 227 231 233 229 227 227 225 223 229 247 265 270 276 286 294 299 302 303 303 305 307 310 313 314 314 313 312 310 308 306 304 302 300 298 297 296 294 294 293 292 292 292 291 289 289 289 288 287 286 285 286 288
221 229 234 240 246 242 232 222 211 202 207 218 223 222 221 219 218 222 225 225 225 222 221 221 218 217 217 217 220 224 223 220 220 224 228 226 225 225 222 220 224 235 260 272 279 290 299 301 303 305 307 309 312 313 315 315 313 311 309 307 305 303 301 299 297 295 293 292 292 291 292 291 290 290 290 288 286 285 284 283 283 283 282 283 285
208 219 222 225 231 233 224 213 208 210 213 213 209 209 214 217 218 222 226 228 227 224 220 214 210 211 213 214 218 217 212 211 216 221 221 220 221 220 215 219 232 252 270 278 287 296 300 301 305 309 311 313 314 314 313 309 306 304 303 301 300 298 297 296 295 294 293 292 291 291 291 290 290 291 290 288 286 285 283 282 282 283 283 284 285
210 216 218 219 223 228 227 219 216 222 227 224 212 204 205 211 216 221 226 229 228 223 216 208 206 207 208 210 211 208 206 210 214 215 216 217 217 216 218 233 253 267 275 282 289 295 299 304 309 310 310 310 310 308 306 303 301 301 300 298 296 294 294 294 293 294 295 295 295 295 294 294 294 294 294 291 288 286 284 283 283 283 284 284 284
216 221 224 224 223 227 232 231 228 231 236 236 226 215 209 209 213 220 224 226 224 219 215 212 211 210 205 202 204 203 203 208 210 209 211 211 210 216 231 251 265 271 278 286 293 298 303 306 307 306 305 304 303 301 300 300 300 300 298 296 294 294 294 295 295 295 295 295 296 297 298 299 299 297 296 293 291 290 288 286 285 285 285 285 284
218 218 223 226 227 233 240 240 239 241 241 239 232 223 216 215 219 223 225 224 220 216 215 213 211 208 201 197 198 199 200 204 205 202 202 205 214 227 242 258 270 277 284 292 297 300 303 303 302 301 300 298 298 299 300 301 301 299 296 294 294 295 295 295 294 295 295 296 298 300 302 303 302 300 298 296 295 294 293 292 291 290 290 289 287
221 218 219 220 224 237 244 244 246 245 241 236 226 217 217 222 227 231 230 224 213 212 215 212 204 201 198 195 195 195 196 198 197 194 195 206 222 238 253 266 277 286 293 298 300 300 301 299 297 296 296 296 298 301 303 303 300 298 296 296 296 297 296 296 297 299 300 302 303 304 305 303 301 300 299 298 298 298 297 296 294 293 292 292 292
236 229 216 211 214 228 239 243 247 241 232 226 219 216 219 224 227 233 233 225 212 210 210 204 197 195 193 192 193 193 193 191 189 190 198 212 230 249 263 273 283 291 295 297 297 297 296 294 293 293 294 295 300 304 304 301 297 295 296 296 297 298 299 301 303 304 306 307 307 308 307 304 303 301 300 300 300 300 299 297 296 295 294 294 294
327 298 222 201 201 204 203 217 252 230 215 212 213 213 217 220 221 226 227 220 215 211 202 195 193 192 190 188 188 187 188 187 187 194 207 223 241 255 267 277 284 289 290 291 292 292 291 291 292 294 296 300 305 307 303 298 296 297 298 298 300 302 304 305 307 309 309 310 310 310 308 306 306 304 303 303 303 302 301 300 299 299 299 299 298
62 100 192 189 190 195 190 178 178 190 195 203 207 204 205 209 211 214 213 205 201 201 196 193 193 191 188 185 182 182 185 187 193 205 217 229 243 256 268 277 283 285 286 287 289 289 291 292 294 298 301 305 308 308 305 303 303 304 304 305 307 308 309 311 313 314 313 313 312 312 310 310 310 309 308 309 309 309 309 308 307 307 306 304 302
121 140 150 157 167 185 186 177 178 180 185 195 200 200 203 204 201 201 199 192 189 192 192 190 189 186 181 178 179 183 187 193 202 214 223 231 244 258 270 276 280 283 285 288 290 294 296 298 299 302 304 306 307 308 309 310 310 311 312 313 314 314 315 317 318 317 315 315 315 315 315 315 314 313 313 314 315 315 315 313 311 309 307 304 302
141 150 155 154 159 175 189 189 190 187 186 194 200 200 203 202 193 189 190 191 191 192 190 185 181 179 176 177 182 188 194 200 208 217 226 237 250 262 270 277 283 288 291 295 298 299 299 298 299 302 305 307 308 311 313 314 314 315 316 318 318 319 319 320 320 319 318 318 318 319 319 318 318 317 318 319 319 318 316 314 311 309 307 305 303
133 155 174 170 171 186 199 195 192 189 189 197 199 196 196 195 188 183 186 190 190 188 185 180 177 176 179 183 188 193 198 203 210 219 231 246 257 267 277 285 289 292 293 295 296 295 295 296 298 301 304 307 310 311 312 314 316 318 320 320 320 321 321 322 323 322 322 322 323 324 324 324 323 323 322 322 321 318 316 313 312 310 309 309 308
129 148 179 184 181 186 193 193 190 188 186 187 187 185 186 188 186 183 184 185 182 179 178 177 176 180 185 187 190 195 199 205 216 229 245 261 271 279 285 286 285 285 287 289 291 293 295 298 300 302 304 308 310 311 313 316 319 321 323 323 323 323 324 324 324 324 325 327 328 328 328 327 325 323 321 320 319 317 315 314 313 312 312 312 312
130 122 159 179 177 176 181 186 187 185 178 173 174 179 182 184 185 185 185 184 181 178 177 178 180 183 184 187 190 196 204 214 226 242 260 272 278 282 283 282 282 285 289 293 296 298 299 301 302 305 309 312 314 315 317 319 321 324 325 325 324 324 324 324 325 327 330 331 330 327 325 323 320 319 318 318 317 316 315 314 313 313 312 312 311
157 148 130 152 168 172 172 175 180 183 177 171 172 177 182 186 189 188 187 186 186 184 182 182 183 182 183 189 194 201 211 225 239 255 268 276 279 281 283 285 289 293 296 298 300 300 300 302 304 308 312 315 315 316 317 320 323 325 326 325 323 322 324 327 328 329 330 329 326 323 320 319 318 318 318 318 316 315 314 313 313 312 311 311 310
171 180 158 139 158 170 171 170 176 183 180 175 175 179 182 190 197 198 198 195 192 190 185 180 180 185 189 195 201 210 224 238 252 265 273 279 282 285 288 291 293 297 299 299 300 300 301 305 309 312 314 315 316 318 320 323 324 324 323 324 324 325 327 327 327 326 325 324 323 321 320 319 319 319 318 317 315 314 314 313 313 312 312 311 311
171 184 184 168 157 166 170 169 174 184 185 182 183 185 187 191 197 204 209 207 198 194 189 183 183 190 196 203 212 222 234 249 264 275 282 286 288 291 293 295 296 298 299 299 300 304 307 312 316 318 319 319 320 321 322 323 322 322 324 327 328 328 327 326 325 326 326 326 326 324 323 322 320 319 317 316 315 315 315 315 314 314 313 313 312
172 181 186 181 174 174 175 172 177 187 189 188 190 192 193 195 194 193 200 205 202 201 199 194 192 198 204 212 220 229 245 263 276 284 288 290 292 293 295 296 298 300 301 303 306 310 313 317 319 319 320 319 318 318 319 321 323 325 327 328 328 327 326 326 327 328 328 327 326 324 323 322 320 319 318 317 317 317 316 316 316 315 314 313 312
183 187 191 190 186 185 184 180 182 187 189 191 195 197 199 203 200 194 192 195 199 202 204 204 205 210 215 220 229 246 263 274 281 285 288 290 293 294 295 297 300 302 304 307 310 312 314 315 314 313 312 311 313 317 321 324 327 328 328 328 328 328 328 329 329 329 327 326 324 323 322 321 320 319 319 318 318 317 316 316 315 314 313 313 312
188 190 196 197 193 191 189 186 185 186 189 193 196 197 201 208 207 199 195 196 199 203 206 209 213 215 220 231 249 265 272 275 279 285 288 290 291 293 296 297 299 302 304 305 307 307 305 301 300 301 304 311 318 323 326 328 330 329 329 329 329 330 330 330 329 328 326 324 323 322 321 320 320 320 319 318 317 316 315 315 314 314 314 313 313
191 191 199 200 198 197 195 191 188 187 189 193 196 198 204 209 208 201 196 196 199 202 204 208 212 216 227 247 265 270 272 275 281 286 287 287 288 290 294 296 298 299 298 297 296 292 288 290 300 308 316 322 327 330 330 331 331 330 329 330 331 331 331 329 328 326 325 323 323 323 322 322 321 320 319 317 316 315 315 314 314 313 312 311 310
192 188 192 196 199 201 199 195 193 191 192 194 195 197 201 206 206 202 199 197 199 201 201 203 208 220 241 260 269 272 274 278 282 284 284 285 288 291 291 292 291 287 284 282 277 273 283 300 312 320 327 332 333 333 332 331 331 331 331 332 332 331 329 328 327 326 325 324 323 323 322 321 320 318 317 316 315 315 315 314 313 312 311 310 310
203 202 204 201 199 199 199 199 199 197 197 200 200 197 197 200 201 200 198 198 198 196 195 201 217 242 262 269 271 274 277 280 281 282 284 286 287 285 282 280 277 271 265 262 262 272 292 306 317 327 335 337 337 336 335 334 334 334 334 333 332 331 330 329 328 327 325 324 322 321 320 319 318 317 317 317 316 316 315 315 314 314 314 315 315
211 214 212 206 203 202 201 201 199 198 200 205 205 199 194 193 195 196 196 199 201 202 207 222 243 258 266 269 272 275 278 279 279 281 283 282 278 276 275 270 256 240 238 247 265 287 305 320 331 338 340 340 339 339 337 336 335 335 334 333 332 331 331 329 328 326 324 323 321 321 321 321 320 319 319 319 318 318 318 318 318 318 318 318 318
211 211 209 209 210 212 209 203 198 198 202 207 208 203 195 192 192 194 196 202 209 217 226 236 244 249 255 265 274 278 278 280 279 275 270 268 268 269 266 249 228 224 238 264 294 314 328 337 340 339 337 338 339 339 337 336 335 334 333 333 333 332 331 329 327 326 325 324 324 323 323 322 321 321 321 321 320 320 320 320 320 320 319 319 318
211 213 213 213 216 218 215 206 201 203 206 206 204 203 201 196 191 191 197 207 216 224 229 231 236 247 264 278 284 284 281 277 268 258 254 258 264 265 256 235 225 235 260 292 317 328 334 337 335 332 332 335 337 337 336 335 335 334 334 333 333 332 331 329 328 328 326 325 325 324 324 324 324 323 323 322 322 322 321 321 320 320 319 319 319
220 218 216 216 217 214 210 207 207 208 205 200 197 198 199 196 192 193 202 212 218 221 225 231 241 262 282 289 285 279 271 260 250 245 243 246 250 250 241 227 228 249 285 321 330 332 334 333 330 330 332 334 335 336 336 336 335 335 334 334 333 332 332 331 330 329 327 326 326 326 326 326 325 324 323 323 322 322 321 321 320 320 320 320 320
222 218 216 216 213 207 204 207 209 206 202 200 199 197 194 191 193 198 203 209 218 226 233 241 255 272 286 289 279 268 259 252 249 247 241 237 236 234 227 224 235 269 319 333 330 331 333 332 329 330 331 333 334 336 336 336 336 335 334 334 333 333 332 332 331 330 329 329 328 328 327 327 326 325 324 324 323 323 323 323 322 322 322 322 322
223 222 220 215 208 204 206 207 203 199 200 203 201 195 190 190 194 200 207 216 228 239 247 255 264 274 281 276 264 255 248 243 240 237 232 227 225 225 227 237 268 311 327 326 324 328 330 326 325 328 331 334 336 338 338 337 336 335 334 334 334 333 333 333 331 331 330 329 328 328 328 327 327 326 325 325 325 325 325 325 325 324 324 324 324
222 223 226 223 211 202 199 198 197 198 201 202 197 192 193 196 201 207 216 228 240 249 255 262 268 273 268 257 249 244 239 235 231 225 219 217 220 231 251 283 303 312 313 312 314 318 319 319 324 331 336 338 339 340 338 336 334 333 333 333 334 334 333 332 331 330 329 328 328 328 327 327 327 326 326 326 326 327 327 327 326 326 326 326 326
227 229 232 226 210 197 192 194 197 199 197 193 192 192 196 203 211 220 229 237 242 247 252 259 261 250 240 236 234 233 232 228 222 214 207 208 222 250 274 284 289 294 301 306 311 316 319 326 333 338 339 339 339 338 335 333 331 331 332 333 333 333 331 330 329 328 328 327 327 327 327 327 327 327 327 327 328 328 329 328 328 328 327 327 328
232 241 229 214 205 200 197 198 201 197 186 181 187 197 201 210 226 238 242 242 241 239 240 247 248 236 224 219 221 223 220 215 210 207 206 214 238 258 266 273 289 308 315 319 323 327 330 335 339 340 338 337 336 333 331 329 329 330 331 331 331 330 329 328 328 327 327 327 327 327 327 328 328 328 328 329 329 329 330 330 329 329 329 328 329
219 227 216 204 200 201 200 197 196 193 184 181 194 212 218 223 233 237 232 220 199 190 210 230 234 225 215 214 216 213 205 198 198 204 219 238 254 270 286 306 323 328 327 328 331 333 335 338 339 336 334 333 330 328 327 327 327 328 329 329 329 329 328 328 327 327 327 327 327 327 328 329 328 328 329 330 330 330 331 331 331 330 330 330 331
182 187 189 182 178 180 183 183 185 188 189 192 202 213 218 217 208 191 171 157 157 181 206 216 217 214 214 215 212 204 196 190 195 211 232 253 278 303 319 327 328 326 325 328 331 333 335 336 334 331 329 327 325 324 325 325 325 326 328 328 328 328 328 327 327 327 327 328 328 328 329 329 329 329 330 331 331 331 331 332 332 332 331 331 332
Height
3168 3170 3172 3172 3173 3175 3176 3177 3178 3179 3179 3181 3182 3183 3184 3185 3187 3187 3188 3189 3190 3191 3192 3193 3194 3195 3196 3196 3197 3198 3198 3198 3198 3198 3197 3197 3197 3196 3196 3196 3195 3195 3195 3194 3193 3193 3192 3192 3191 3191 3190 3190 3190 3189 3189 3188 3187 3187 3187 3186 3186 3185 3184 3183 3182 3182 3183 3181 3178 3176 3174 3173 3173 3171 3169 3168 3166 3164 3162 3161 3160 3159 3158 3158 3157
3166 3168 3169 3170 3171 3172 3173 3174 3175 3176 3177 3179 3180 3181 3182 3183 3183 3185 3186 3187 3188 3188 3189 3191 3192 3193 3193 3195 3195 3196 3196 3196 3196 3196 3196 3196 3195 3195 3194 3194 3193 3193 3192 3192 3191 3191 3190 3189 3189 3188 3188 3187 3187 3187 3186 3186 3185 3185 3184 3183 3183 3182 3181 3180 3179 3179 3179 3178 3175 3173 3172 3170 3170 3168 3166 3165 3164 3162 3160 3159 3158 3157 3156 3155 3154
3164 3164 3165 3166 3168 3169 3170 3171 3172 3173 3175 3176 3178 3179 3179 3180 3181 3182 3182 3182 3183 3185 3186 3188 3189 3190 3191 3192 3193 3193 3194 3194 3194 3195 3194 3194 3194 3193 3192 3192 3191 3190 3189 3189 3189 3188 3188 3187 3186 3185 3185 3185 3184 3184 3184 3183 3183 3182 3181 3181 3180 3179 3178 3177 3176 3175 3175 3175 3173 3171 3170 3168 3167 3166 3164 3163 3162 3160 3159 3157 3156 3155 3154 3153 3152
3160 3161 3162 3163 3164 3166 3167 3168 3169 3171 3172 3174 3175 3176 3177 3178 3177 3174 3173 3176 3179 3183 3186 3187 3187 3188 3189 3190 3191 3191 3191 3192 3192 3192 3192 3191 3191 3191 3190 3189 3188 3187 3186 3186 3186 3186 3185 3184 3184 3183 3182 3182 3181 3181 3181 3180 3180 3179 3178 3178 3177 3176 3175 3174 3174 3173 3173 3172 3171 3169 3167 3166 3165 3164 3163 3161 3160 3158 3157 3156 3155 3153 3152 3152 3151
3155 3157 3159 3160 3161 3163 3164 3165 3167 3168 3170 3171 3172 3174 3174 3171 3167 3166 3171 3177 3181 3185 3188 3187 3184 3184 3186 3187 3188 3188 3189 3189 3189 3189 3189 3189 3189 3188 3187 3186 3186 3185 3185 3185 3185 3184 3183 3182 3181 3180 3180 3179 3179 3178 3178 3177 3177 3177 3176 3175 3175 3174 3174 3173 3172 3171 3170 3170 3169 3167 3165 3164 3163 3162 3161 3160 3159 3157 3156 3154 3153 3152 3151 3150 3149
3150 3153 3155 3157 3158 3160 3161 3163 3165 3166 3168 3169 3170 3171 3168 3164 3164 3169 3176 3181 3182 3184 3186 3185 3183 3183 3184 3185 3185 3185 3186 3186 3186 3186 3186 3186 3186 3185 3184 3184 3183 3183 3183 3183 3182 3182 3180 3179 3178 3177 3177 3176 3176 3176 3176 3176 3175 3175 3174 3174 3173 3173 3172 3171 3170 3169 3168 3167 3166 3165 3164 3163 3162 3160 3159 3158 3157 3156 3154 3153 3151 3150 3149 3148 3147
3144 3148 3152 3154 3156 3157 3159 3160 3162 3164 3165 3166 3167 3166 3163 3163 3168 3174 3176 3178 3180 3182 3181 3181 3182 3183 3182 3183 3183 3183 3183 3183 3184 3184 3184 3184 3183 3183 3182 3181 3181 3181 3181 3181 3180 3179 3178 3177 3176 3175 3175 3174 3174 3174 3174 3174 3174 3173 3173 3172 3172 3171 3170 3169 3168 3167 3167 3165 3164 3163 3162 3160 3160 3158 3157 3156 3155 3153 3153 3152 3150 3148 3147 3146 3145
3141 3144 3148 3151 3152 3155 3157 3158 3159 3161 3162 3163 3164 3162 3162 3165 3169 3172 3173 3175 3176 3178 3178 3179 3180 3180 3180 3181 3181 3180 3180 3180 3181 3182 3182 3181 3181 3181 3181 3180 3180 3180 3179 3179 3178 3177 3177 3176 3175 3175 3174 3174 3174 3174 3173 3173 3173 3172 3172 3171 3170 3170 3169 3168 3167 3166 3165 3164 3162 3161 3160 3158 3157 3156 3155 3154 3153 3152 3150 3150 3149 3147 3146 3145 3143
3138 3139 3143 3147 3149 3151 3153 3154 3156 3157 3158 3160 3161 3160 3161 3165 3167 3168 3170 3172 3173 3174 3175 3176 3177 3178 3178 3178 3178 3177 3177 3177 3178 3179 3179 3179 3180 3180 3179 3179 3179 3178 3178 3178 3177 3177 3176 3175 3175 3174 3174 3174 3173 3173 3172 3172 3171 3171 3170 3170 3169 3168 3167 3166 3165 3164 3163 3161 3160 3159 3158 3157 3156 3154 3153 3152 3151 3150 3149 3148 3147 3145 3144 3143 3141
3135 3134 3137 3141 3145 3147 3148 3149 3151 3153 3154 3156 3157 3158 3160 3163 3165 3165 3166 3168 3169 3171 3172 3173 3174 3175 3175 3175 3175 3174 3175 3176 3176 3176 3177 3178 3178 3178 3178 3178 3177 3177 3176 3176 3176 3176 3175 3175 3174 3174 3173 3173 3172 3172 3171 3170 3170 3170 3169 3168 3168 3167 3166 3164 3163 3162 3161 3159 3158 3157 3156 3155 3154 3153 3152 3150 3149 3148 3147 3146 3145 3143 3142 3141 3139
3135 3132 3132 3135 3138 3139 3140 3142 3145 3148 3151 3153 3155 3156 3158 3160 3161 3162 3163 3165 3167 3168 3169 3170 3171 3172 3173 3173 3173 3173 3174 3175 3174 3175 3176 3176 3176 3176 3176 3175 3175 3175 3175 3175 3175 3175 3174 3174 3173 3173 3172 3171 3171 3170 3170 3169 3169 3168 3167 3167 3166 3165 3164 3163 3161 3160 3159 3157 3156 3155 3155 3154 3152 3151 3150 3148 3147 3145 3144 3143 3142 3141 3140 3139 3137
3134 3132 3131 3133 3133 3133 3135 3139 3143 3147 3150 3152 3153 3155 3157 3158 3159 3159 3161 3163 3164 3165 3165 3167 3168 3169 3170 3171 3171 3172 3172 3173 3173 3173 3174 3174 3174 3174 3173 3174 3174 3174 3174 3174 3174 3173 3173 3172 3172 3171 3171 3170 3169 3169 3168 3168 3167 3166 3166 3165 3164 3163 3162 3161 3160 3158 3157 3156 3155 3154 3153 3152 3151 3149 3148 3147 3145 3143 3142 3140 3139 3139 3138 3137 3135
3132 3132 3133 3132 3131 3131 3134 3139 3144 3149 3150 3150 3151 3153 3155 3156 3157 3158 3159 3160 3161 3162 3163 3165 3166 3167 3168 3169 3170 3171 3171 3171 3172 3172 3172 3172 3172 3172 3172 3172 3172 3172 3172 3172 3172 3172 3171 3171 3170 3170 3169 3169 3168 3167 3167 3166 3165 3165 3164 3164 3163 3162 3160 3159 3158 3156 3155 3154 3153 3152 3151 3150 3149 3147 3145 3144 3143 3141 3140 3138 3137 3136 3135 3134 3133
3130 3132 3133 3132 3132 3134 3137 3140 3145 3149 3148 3147 3148 3151 3153 3155 3156 3156 3157 3158 3159 3160 3162 3163 3164 3165 3166 3167 3168 3169 3169 3170 3170 3171 3171 3171 3171 3171 3171 3171 3171 3171 3171 3171 3171 3170 3170 3169 3169 3168 3168 3167 3167 3166 3165 3164 3164 3163 3163 3161 3160 3159 3158 3157 3156 3154 3153 3152 3151 3150 3148 3147 3146 3144 3142 3141 3140 3139 3137 3136 3135 3134 3133 3131 3130
3126 3129 3130 3132 3135 3138 3139 3141 3144 3147 3146 3145 3147 3150 3151 3153 3153 3153 3154 3155 3156 3158 3160 3161 3162 3163 3164 3165 3166 3167 3168 3168 3169 3169 3169 3169 3170 3170 3170 3170 3170 3170 3170 3170 3170 3169 3168 3168 3167 3167 3167 3166 3165 3165 3164 3163 3162 3161 3160 3159 3158 3157 3156 3155 3154 3153 3151 3150 3149 3147 3146 3144 3143 3141 3140 3139 3138 3136 3135 3134 3133 3132 3130 3129 3128
3124 3126 3129 3132 3135 3137 3139 3141 3143 3145 3145 3145 3146 3147 3148 3149 3150 3151 3151 3152 3153 3155 3156 3158 3159 3160 3161 3163 3164 3165 3166 3166 3167 3167 3167 3168 3169 3169 3169 3170 3170 3170 3169 3169 3168 3167 3167 3167 3166 3166 3165 3165 3164 3163 3162 3161 3160 3159 3158 3157 3156 3154 3153 3153 3152 3151 3149 3148 3146 3145 3143 3142 3141 3139 3138 3137 3135 3134 3132 3131 3130 3129 3128 3127 3126
3123 3126 3128 3130 3132 3134 3137 3139 3141 3143 3143 3143 3143 3144 3145 3146 3147 3148 3148 3149 3150 3152 3153 3154 3156 3157 3158 3159 3161 3163 3164 3165 3165 3166 3166 3167 3167 3168 3168 3169 3169 3168 3168 3167 3166 3166 3166 3166 3165 3165 3164 3163 3162 3161 3160 3159 3158 3157 3156 3155 3154 3152 3151 3150 3149 3148 3147 3146 3144 3143 3141 3140 3138 3137 3136 3135 3133 3132 3130 3129 3128 3127 3126 3125 3124
3122 3123 3124 3126 3129 3131 3133 3136 3138 3140 3140 3141 3141 3142 3143 3143 3144 3145 3146 3146 3147 3148 3150 3151 3153 3154 3155 3157 3159 3160 3162 3163 3164 3165 3165 3165 3165 3166 3167 3167 3167 3167 3166 3166 3165 3165 3165 3165 3164 3163 3162 3162 3161 3159 3158 3157 3156 3155 3154 3153 3152 3151 3149 3148 3147 3146 3145 3143 3142 3141 3139 3138 3136 3135 3134 3132 3131 3129 3128 3127 3126 3125 3124 3123 3121
3119 3120 3121 3124 3127 3129 3131 3133 3135 3137 3137 3137 3137 3138 3139 3141 3142 3142 3143 3143 3143 3144 3146 3148 3150 3151 3153 3155 3156 3158 3159 3160 3162 3162 3163 3163 3164 3165 3165 3165 3165 3165 3165 3165 3165 3164 3164 3164 3163 3162 3161 3160 3159 3158 3157 3156 3155 3154 3152 3151 3150 3149 3147 3146 3145 3143 3142 3141 3139 3138 3137 3135 3134 3133 3131 3130 3128 3127 3126 3124 3123 3122 3121 3120 3119
3117 3119 3121 3124 3126 3128 3130 3131 3133 3133 3135 3136 3136 3134 3135 3137 3139 3139 3140 3139 3140 3142 3145 3147 3148 3149 3150 3152 3154 3155 3157 3158 3159 3160 3161 3161 3162 3163 3164 3164 3164 3164 3164 3164 3163 3163 3162 3162 3161 3160 3159 3158 3157 3156 3155 3154 3153 3152 3151 3149 3148 3147 3146 3144 3143 3141 3140 3138 3137 3135 3134 3132 3131 3130 3128 3127 3126 3125 3123 3122 3121 3120 3119 3117 3116
3117 3120 3122 3124 3125 3127 3127 3128 3129 3130 3132 3135 3136 3134 3133 3133 3134 3135 3136 3136 3138 3141 3144 3147 3148 3149 3149 3150 3152 3154 3155 3156 3157 3158 3159 3160 3161 3162 3162 3162 3162 3162 3162 3162 3162 3161 3160 3159 3159 3158 3157 3156 3156 3155 3154 3153 3152 3150 3149 3147 3146 3145 3144 3142 3141 3139 3138 3136 3134 3133 3131 3130 3128 3127 3126 3124 3123 3122 3121 3120 3118 3117 3116 3114 3112
3116 3118 3120 3121 3122 3123 3124 3125 3126 3128 3131 3133 3133 3133 3133 3133 3133 3133 3134 3135 3139 3143 3144 3146 3148 3150 3150 3150 3151 3153 3154 3155 3156 3157 3158 3158 3159 3160 3160 3160 3160 3160 3160 3160 3160 3159 3158 3158 3157 3156 3155 3154 3154 3153 3152 3151 3150 3148 3147 3145 3144 3143 3142 3140 3138 3137 3135 3134 3132 3130 3129 3127 3125 3124 3123 3121 3120 3119 3118 3117 3115 3113 3112 3110 3108
3115 3116 3117 3118 3119 3120 3122 3124 3124 3126 3129 3131 3130 3130 3131 3133 3135 3135 3135 3138 3142 3144 3144 3145 3147 3149 3149 3149 3150 3152 3152 3154 3155 3156 3156 3157 3157 3158 3158 3158 3158 3158 3158 3158 3158 3158 3157 3156 3155 3155 3153 3152 3152 3152 3151 3150 3148 3146 3144 3143 3142 3140 3139 3137 3136 3135 3133 3132 3130 3128 3127 3125 3123 3121 3120 3118 3117 3116 3115 3114 3112 3110 3109 3106 3104
3112 3113 3115 3116 3116 3118 3120 3122 3122 3123 3126 3128 3127 3128 3131 3135 3136 3136 3137 3139 3140 3141 3143 3144 3146 3147 3148 3149 3149 3150 3151 3152 3153 3154 3155 3155 3155 3156 3156 3156 3156 3156 3156 3157 3157 3156 3156 3155 3154 3153 3151 3150 3150 3150 3149 3148 3146 3144 3142 3141 3139 3138 3136 3135 3134 3132 3131 3129 3127 3125 3124 3122 3120 3118 3117 3115 3114 3113 3112 3110 3109 3107 3105 3103 3101
3111 3112 3113 3113 3114 3116 3118 3119 3120 3120 3123 3124 3125 3127 3131 3133 3133 3134 3136 3137 3138 3138 3140 3143 3144 3145 3146 3147 3148 3149 3150 3151 3152 3152 3153 3153 3153 3154 3154 3154 3155 3155 3155 3155 3155 3155 3154 3153 3152 3150 3149 3148 3148 3148 3147 3145 3143 3142 3140 3139 3137 3136 3134 3133 3132 3130 3128 3126 3124 3123 3121 3119 3117 3115 3113 3112 3111 3110 3108 3107 3105 3103 3102 3100 3098
3110 3110 3111 3112 3113 3114 3116 3117 3118 3119 3121 3122 3124 3126 3128 3129 3130 3132 3134 3134 3135 3137 3138 3140 3142 3143 3144 3145 3146 3147 3148 3149 3150 3150 3151 3152 3152 3152 3152 3153 3153 3153 3154 3154 3153 3153 3152 3151 3149 3148 3147 3146 3145 3144 3143 3142 3141 3139 3138 3136 3135 3133 3132 3130 3129 3127 3125 3123 3122 3120 3118 3116 3114 3112 3110 3109 3108 3106 3105 3103 3101 3100 3098 3097 3095
3109 3109 3110 3111 3112 3113 3115 3116 3117 3118 3119 3120 3122 3124 3125 3126 3127 3129 3131 3132 3134 3135 3136 3138 3140 3141 3142 3143 3144 3145 3146 3147 3148 3149 3150 3150 3151 3151 3151 3152 3152 3152 3152 3152 3151 3151 3149 3148 3146 3146 3145 3143 3142 3141 3140 3139 3138 3137 3135 3133 3131 3130 3129 3128 3126 3124 3122 3121 3119 3117 3115 3113 3111 3109 3107 3106 3105 3103 3101 3100 3098 3096 3095 3094 3092
3109 3109 3109 3109 3110 3112 3113 3115 3116 3117 3118 3118 3119 3122 3124 3125 3126 3128 3130 3132 3134 3135 3136 3137 3139 3140 3141 3141 3142 3143 3144 3145 3147 3148 3149 3149 3150 3150 3150 3150 3150 3150 3149 3149 3149 3148 3147 3146 3144 3143 3142 3141 3139 3138 3137 3136 3135 3134 3132 3131 3129 3127 3125 3125 3123 3122 3120 3118 3116 3115 3113 3111 3108 3106 3104 3103 3102 3100 3098 3096 3095 3093 3091 3090 3088
3108 3108 3109 3108 3108 3109 3111 3113 3114 3116 3117 3117 3118 3120 3122 3124 3126 3127 3129 3131 3133 3135 3136 3137 3138 3139 3139 3140 3141 3142 3143 3144 3145 3147 3148 3148 3149 3148 3148 3148 3148 3148 3147 3147 3147 3146 3145 3143 3142 3141 3139 3138 3137 3136 3135 3134 3133 3131 3130 3128 3127 3125 3123 3122 3121 3119 3117 3116 3114 3112 3110 3108 3106 3104 3102 3100 3099 3097 3095 3093 3091 3089 3088 3086 3084
3108 3108 3108 3108 3108 3108 3110 3111 3113 3115 3116 3116 3117 3119 3121 3123 3125 3127 3128 3130 3132 3133 3135 3137 3138 3138 3138 3139 3140 3141 3142 3143 3144 3145 3146 3147 3147 3147 3147 3147 3146 3146 3145 3144 3144 3143 3142 3141 3140 3139 3137 3136 3135 3133 3132 3131 3130 3129 3128 3126 3124 3123 3121 3120 3119 3117 3115 3113 3111 3109 3107 3105 3103 3101 3100 3098 3096 3094 3092 3090 3088 3086 3084 3082 3080
3109 3109 3109 3109 3108 3108 3110 3111 3113 3115 3115 3115 3117 3119 3121 3123 3125 3126 3128 3129 3131 3132 3134 3136 3137 3137 3138 3139 3139 3140 3141 3142 3143 3144 3145 3145 3145 3146 3146 3145 3144 3143 3143 3142 3141 3140 3140 3139 3137 3136 3135 3134 3132 3131 3129 3128 3128 3127 3126 3124 3122 3121 3120 3119 3117 3115 3113 3111 3108 3106 3105 3103 3101 3100 3098 3096 3094 3092 3089 3087 3085 3083 3080 3078 3076
3109 3110 3110 3109 3109 3109 3110 3112 3113 3115 3115 3116 3118 3120 3122 3124 3125 3126 3128 3129 3131 3133 3134 3135 3136 3137 3138 3138 3138 3139 3139 3140 3141 3143 3143 3144 3144 3144 3143 3142 3142 3141 3140 3139 3139 3138 3137 3137 3135 3134 3132 3131 3130 3129 3128 3127 3126 3125 3124 3123 3121 3120 3118 3116 3114 3112 3110 3108 3106 3105 3103 3101 3099 3097 3095 3093 3091 3089 3087 3084 3082 3080 3077 3075 3072
3109 3110 3111 3110 3109 3109 3110 3112 3114 3115 3116 3117 3119 3121 3123 3125 3127 3128 3128 3130 3131 3133 3135 3136 3137 3137 3137 3137 3138 3138 3139 3140 3141 3142 3142 3142 3142 3141 3141 3140 3139 3139 3138 3137 3136 3136 3135 3134 3133 3132 3131 3130 3128 3127 3126 3125 3124 3123 3122 3121 3120 3117 3115 3113 3111 3110 3108 3107 3105 3103 3101 3099 3096 3094 3093 3091 3088 3086 3084 3081 3079 3077 3074 3071 3069
3108 3109 3110 3110 3110 3110 3111 3112 3113 3115 3117 3118 3120 3122 3123 3125 3127 3129 3129 3130 3131 3133 3135 3135 3136 3137 3137 3137 3137 3138 3139 3140 3140 3141 3141 3140 3140 3139 3139 3138 3137 3137 3136 3135 3134 3133 3132 3131 3131 3130 3129 3128 3127 3126 3125 3124 3123 3122 3120 3119 3117 3115 3113 3111 3110 3108 3106 3105 3103 3101 3098 3096 3094 3092 3090 3088 3086 3083 3080 3078 3075 3073 3070 3067 3065
3106 3108 3109 3109 3109 3110 3110 3111 3113 3114 3116 3118 3120 3122 3123 3124 3126 3127 3129 3130 3131 3133 3134 3134 3135 3135 3135 3136 3137 3137 3138 3139 3139 3139 3138 3138 3138 3138 3137 3136 3135 3135 3134 3133 3132 3131 3130 3129 3129 3128 3127 3126 3125 3124 3123 3122 3121 3120 3118 3117 3115 3113 3111 3110 3108 3106 3104 3102 3100 3098 3096 3094 3092 3089 3087 3084 3082 3079 3076 3074 3071 3068 3066 3063 3061
3105 3106 3107 3107 3107 3108 3109 3110 3111 3113 3115 3117 3119 3120 3122 3123 3125 3126 3127 3129 3130 3131 3132 3133 3133 3133 3134 3135 3136 3136 3137 3137 3137 3137 3136 3136 3136 3136 3135 3134 3133 3132 3131 3131 3130 3129 3129 3128 3127 3127 3126 3125 3124 3123 3122 3121 3120 3118 3116 3115 3113 3111 3109 3107 3105 3103 3101 3100 3098 3096 3094 3091 3089 3086 3083 3081 3078 3075 3073 3070 3068 3065 3062 3060 3057
3103 3105 3106 3106 3106 3107 3108 3109 3110 3112 3114 3116 3118 3120 3121 3123 3124 3125 3126 3127 3128 3130 3131 3131 3132 3132 3133 3134 3134 3134 3135 3135 3135 3135 3135 3134 3134 3133 3132 3131 3131 3130 3130 3129 3129 3129 3128 3127 3126 3126 3125 3124 3123 3122 3120 3119 3118 3116 3114 3113 3111 3109 3107 3105 3103 3101 3099 3097 3095 3093 3091 3088 3086 3083 3080 3077 3074 3072 3069 3067 3064 3061 3059 3056 3053
3102 3103 3104 3105 3106 3107 3108 3109 3110 3111 3113 3115 3117 3119 3121 3122 3123 3124 3125 3126 3127 3128 3129 3130 3131 3131 3132 3132 3133 3133 3133 3133 3133 3133 3133 3133 3133 3132 3131 3130 3129 3129 3129 3128 3128 3128 3127 3126 3125 3125 3124 3123 3121 3120 3118 3117 3116 3114 3113 3111 3109 3107 3105 3103 3101 3099 3096 3094 3092 3090 3087 3084 3082 3079 3077 3074 3071 3069 3066 3063 3060 3058 3055 3052 3050
3100 3101 3102 3103 3104 3105 3106 3108 3109 3110 3112 3114 3116 3118 3119 3121 3122 3123 3124 3125 3126 3127 3128 3129 3130 3130 3131 3131 3131 3131 3131 3131 3131 3131 3130 3131 3131 3130 3129 3128 3128 3128 3128 3127 3127 3126 3125 3125 3124 3124 3123 3121 3120 3118 3117 3116 3114 3113 3111 3109 3107 3105 3103 3101 3099 3097 3094 3092 3089 3086 3084 3081 3079 3076 3074 3071 3068 3065 3063 3060 3057 3054 3051 3049 3046
3098 3099 3099 3099 3100 3101 3103 3105 3107 3109 3111 3113 3115 3117 3118 3119 3120 3121 3122 3123 3124 3125 3126 3127 3128 3129 3130 3130 3130 3130 3130 3129 3129 3128 3128 3128 3129 3128 3128 3128 3127 3127 3126 3126 3125 3125 3124 3124 3123 3122 3121 3120 3118 3117 3116 3114 3112 3111 3109 3107 3105 3103 3101 3099 3096 3094 3091 3089 3086 3084 3081 3079 3076 3073 3071 3068 3065 3062 3059 3056 3054 3050 3047 3044 3041
3094 3095 3095 3095 3096 3098 3100 3102 3104 3108 3110 3112 3114 3115 3115 3116 3118 3119 3120 3121 3123 3124 3125 3126 3127 3128 3129 3128 3128 3127 3127 3127 3127 3126 3126 3126 3126 3126 3126 3126 3126 3126 3125 3124 3124 3124 3123 3122 3121 3120 3119 3118 3117 3116 3114 3112 3111 3109 3107 3106 3103 3101 3098 3096 3093 3091 3089 3086 3083 3081 3078 3075 3073 3070 3067 3064 3061 3058 3055 3052 3049 3045 3042 3039 3037
3092 3093 3093 3094 3095 3096 3098 3100 3103 3106 3109 3110 3112 3113 3113 3113 3114 3116 3118 3120 3121 3123 3124 3125 3126 3127 3127 3126 3125 3125 3125 3125 3125 3124 3124 3124 3124 3124 3125 3125 3124 3124 3124 3123 3123 3122 3121 3120 3119 3119 3118 3117 3115 3114 3113 3111 3109 3108 3105 3103 3101 3098 3096 3094 3091 3089 3086 3083 3080 3077 3075 3072 3069 3066 3063 3060 3057 3054 3051 3048 3044 3041 3038 3035 3033
3090 3091 3092 3092 3093 3095 3097 3100 3102 3104 3106 3108 3110 3112 3112 3112 3112 3114 3116 3118 3119 3121 3122 3123 3124 3124 3124 3123 3123 3122 3123 3123 3123 3123 3122 3122 3122 3123 3123 3123 3123 3123 3123 3122 3121 3121 3120 3119 3118 3117 3116 3115 3114 3113 3111 3110 3108 3105 3103 3100 3098 3096 3093 3091 3088 3085 3083 3080 3077 3074 3072 3068 3065 3062 3059 3056 3053 3050 3047 3044 3041 3038 3035 3032 3029
3087 3087 3088 3090 3092 3095 3097 3099 3099 3101 3103 3106 3108 3110 3111 3111 3111 3112 3114 3116 3117 3118 3120 3121 3121 3121 3120 3120 3120 3120 3121 3121 3121 3121 3121 3121 3121 3121 3122 3122 3122 3122 3122 3121 3120 3119 3119 3118 3117 3116 3115 3114 3112 3111 3109 3107 3105 3102 3100 3098 3095 3093 3090 3087 3085 3082 3079 3076 3073 3071 3068 3065 3062 3058 3055 3052 3049 3046 3043 3040 3037 3034 3031 3028 3025
3084 3084 3086 3089 3090 3093 3095 3097 3097 3099 3101 3103 3105 3107 3108 3109 3109 3111 3113 3114 3115 3116 3117 3118 3118 3117 3117 3118 3118 3118 3119 3119 3119 3119 3120 3120 3120 3120 3121 3121 3121 3121 3120 3119 3119 3118 3117 3116 3115 3114 3113 3112 3110 3109 3106 3104 3102 3099 3097 3095 3092 3089 3087 3084 3081 3078 3075 3072 3069 3066 3063 3060 3057 3054 3051 3048 3045 3042 3039 3036 3033 3030 3027 3024 3021
3081 3082 3085 3086 3087 3089 3092 3093 3095 3097 3099 3101 3102 3104 3105 3106 3108 3110 3111 3112 3113 3113 3114 3114 3114 3114 3115 3116 3117 3117 3117 3117 3117 3118 3118 3119 3119 3119 3120 3120 3119 3119 3119 3118 3117 3117 3116 3115 3114 3113 3111 3110 3108 3105 3103 3101 3098 3096 3094 3091 3089 3086 3083 3080 3077 3073 3070 3067 3064 3062 3059 3056 3053 3050 3047 3044 3041 3038 3035 3032 3029 3026 3023 3021 3018
3081 3081 3082 3082 3083 3085 3088 3090 3093 3095 3097 3098 3100 3102 3104 3105 3107 3108 3109 3110 3110 3111 3111 3112 3112 3113 3114 3115 3115 3115 3116 3116 3117 3117 3118 3118 3118 3118 3118 3118 3118 3118 3118 3117 3116 3115 3114 3113 3112 3110 3109 3106 3104 3102 3099 3097 3095 3093 3091 3088 3085 3082 3079 3076 3073 3070 3067 3064 3061 3058 3055 3052 3049 3046 3043 3040 3037 3034 3032 3029 3026 3023 3020 3017 3015
3080 3080 3080 3081 3082 3083 3085 3089 3092 3094 3095 3096 3098 3100 3102 3104 3106 3107 3107 3108 3108 3108 3109 3110 3110 3112 3113 3113 3114 3114 3115 3115 3116 3116 3117 3117 3116 3116 3116 3116 3117 3117 3116 3116 3115 3113 3112 3111 3109 3107 3105 3103 3101 3099 3097 3095 3093 3090 3087 3084 3081 3078 3075 3072 3069 3067 3064 3061 3058 3055 3052 3048 3045 3042 3039 3037 3034 3031 3028 3026 3023 3020 3017 3014 3012
3079 3079 3078 3079 3081 3084 3086 3089 3092 3093 3094 3095 3098 3099 3101 3103 3104 3105 3105 3105 3106 3107 3108 3109 3110 3111 3112 3113 3113 3114 3114 3115 3115 3115 3115 3115 3115 3115 3115 3116 3116 3115 3114 3113 3112 3111 3110 3108 3106 3104 3102 3100 3098 3097 3095 3092 3090 3087 3084 3081 3078 3075 3072 3069 3066 3064 3061 3058 3055 3052 3048 3045 3042 3039 3037 3034 3031 3028 3026 3023 3020 3017 3014 3012 3009
3078 3079 3078 3078 3080 3083 3085 3088 3091 3093 3093 3094 3097 3098 3100 3101 3102 3103 3103 3104 3105 3106 3108 3109 3109 3110 3111 3112 3112 3113 3113 3114 3114 3114 3114 3114 3114 3114 3114 3113 3113 3112 3111 3110 3110 3108 3107 3105 3103 3101 3100 3098 3097 3095 3092 3090 3087 3084 3081 3078 3075 3072 3069 3066 3063 3060 3057 3054 3051 3048 3045 3042 3039 3037 3034 3031 3029 3026 3023 3020 3017 3015 3012 3010 3007
3078 3080 3081 3081 3082 3084 3087 3089 3091 3092 3093 3094 3096 3097 3098 3099 3100 3101 3102 3103 3105 3107 3108 3109 3109 3110 3110 3111 3111 3112 3112 3112 3113 3113 3113 3113 3113 3112 3111 3111 3110 3109 3109 3108 3107 3106 3104 3102 3101 3100 3098 3097 3095 3092 3090 3087 3084 3081 3078 3075 3072 3069 3066 3063 3060 3057 3054 3050 3047 3044 3042 3039 3037 3034 3031 3028 3026 3023 3020 3018 3015 3012 3010 3007 3005